Station History

Weather Underground - logo

Station Historical Data
Daily Summary for February 28, 2018 Units:  English    Metric   Both
« Previous Day
Next Day »
Daily Weekly Monthly Yearly Custom
  High: Low: Average:
Temperature: 58.0 °F 36.0 °F 47.9 °F
Dew Point: 42.3 °F 34.4 °F 39.1 °F
Humidity: 95 % 45 % 74 %
Wind Speed: 4.6 mph 0.0 mph 0.7 mph
Wind Gust: 4.6 mph - -
Wind:- - SW
Pressure: 30.27 in 30.16 in -
Precipitation: 0.00 in    
Historical Graphs
 
 
Tabular Data for February 28, 2018
Time Temperature Dew Point Pressure Wind Wind Speed Wind Gust Humidity Rainfall Rate (Hourly)
00:01 36.0 °F 34.4 °F 30.17 in Calm     94 % 0.00 in
00:06 36.0 °F 34.4 °F 30.17 in Calm     94 % 0.00 in
00:11 36.1 °F 34.5 °F 30.18 in Calm     94 % 0.00 in
00:16 36.1 °F 34.5 °F 30.18 in Calm     94 % 0.00 in
00:21 36.3 °F 34.7 °F 30.18 in Calm     94 % 0.00 in
00:26 36.4 °F 34.8 °F 30.18 in Calm     94 % 0.00 in
00:31 36.6 °F 35.3 °F 30.18 in Calm     95 % 0.00 in
00:32 36.7 °F 35.4 °F 30.18 in Calm     95 % 0.00 in
00:37 36.8 °F 35.5 °F 30.18 in Calm     95 % 0.00 in
00:42 37.1 °F 35.8 °F 30.18 in Calm     95 % 0.00 in
00:47 37.3 °F 36.0 °F 30.18 in Calm     95 % 0.00 in
00:52 37.4 °F 36.1 °F 30.18 in Calm     95 % 0.00 in
00:57 37.5 °F 36.2 °F 30.18 in Calm     95 % 0.00 in
01:02 37.7 °F 36.4 °F 30.18 in Calm     95 % 0.00 in
01:07 37.8 °F 36.5 °F 30.18 in Calm     95 % 0.00 in
01:12 37.9 °F 36.6 °F 30.18 in Calm     95 % 0.00 in
01:17 38.1 °F 36.8 °F 30.18 in Calm     95 % 0.00 in
01:22 38.1 °F 36.5 °F 30.18 in Calm     94 % 0.00 in
01:27 38.3 °F 36.7 °F 30.18 in Calm     94 % 0.00 in
01:32 38.5 °F 36.9 °F 30.18 in Calm     94 % 0.00 in
01:37 38.4 °F 36.8 °F 30.18 in Calm     94 % 0.00 in
01:42 38.4 °F 36.8 °F 30.18 in Calm     94 % 0.00 in
01:47 38.4 °F 36.8 °F 30.18 in Calm     94 % 0.00 in
01:52 38.5 °F 36.9 °F 30.18 in Calm     94 % 0.00 in
01:57 38.6 °F 37.0 °F 30.18 in Calm     94 % 0.00 in
02:02 38.7 °F 37.1 °F 30.18 in Calm     94 % 0.00 in
02:07 38.9 °F 37.3 °F 30.18 in Calm     94 % 0.00 in
02:12 39.0 °F 37.4 °F 30.18 in Calm     94 % 0.00 in
02:17 39.0 °F 37.1 °F 30.18 in Calm     93 % 0.00 in
02:22 38.9 °F 37.0 °F 30.18 in Calm     93 % 0.00 in
02:27 38.9 °F 37.0 °F 30.18 in Calm     93 % 0.00 in
02:32 39.0 °F 37.1 °F 30.18 in Calm     93 % 0.00 in
02:37 39.0 °F 37.1 °F 30.18 in Calm     93 % 0.00 in
02:42 39.0 °F 37.1 °F 30.18 in Calm     93 % 0.00 in
02:47 39.1 °F 37.2 °F 30.18 in Calm     93 % 0.00 in
02:52 39.1 °F 37.2 °F 30.18 in Calm     93 % 0.00 in
02:57 39.2 °F 37.3 °F 30.18 in Calm     93 % 0.00 in
03:02 39.2 °F 37.3 °F 30.18 in Calm     93 % 0.00 in
03:07 39.2 °F 37.3 °F 30.18 in Calm     93 % 0.00 in
03:12 39.3 °F 37.4 °F 30.18 in Calm     93 % 0.00 in
03:17 39.2 °F 37.3 °F 30.18 in NW 1.2 mph 1.2 mph 93 % 0.00 in
03:22 39.2 °F 37.3 °F 30.18 in Calm     93 % 0.00 in
03:27 39.2 °F 37.3 °F 30.18 in Calm     93 % 0.00 in
03:32 39.3 °F 37.4 °F 30.18 in Calm     93 % 0.00 in
03:37 39.3 °F 37.4 °F 30.18 in Calm     93 % 0.00 in
03:42 39.4 °F 37.8 °F 30.18 in Calm     94 % 0.00 in
03:47 39.6 °F 38.0 °F 30.18 in Calm     94 % 0.00 in
03:52 39.7 °F 38.1 °F 30.18 in Calm     94 % 0.00 in
03:57 39.7 °F 38.1 °F 30.18 in Calm     94 % 0.00 in
04:02 39.9 °F 38.3 °F 30.18 in Calm     94 % 0.00 in
04:07 40.0 °F 38.1 °F 30.19 in Calm     93 % 0.00 in
04:12 40.2 °F 38.3 °F 30.19 in Calm     93 % 0.00 in
04:17 40.4 °F 38.5 °F 30.19 in Calm     93 % 0.00 in
04:22 40.6 °F 38.5 °F 30.19 in Calm     92 % 0.00 in
04:27 40.8 °F 38.7 °F 30.19 in Calm     92 % 0.00 in
04:32 40.8 °F 38.4 °F 30.19 in Calm     91 % 0.00 in
04:37 41.0 °F 38.9 °F 30.19 in Calm     92 % 0.00 in
04:42 41.1 °F 38.7 °F 30.20 in Calm     91 % 0.00 in
04:47 41.2 °F 38.8 °F 30.20 in Calm     91 % 0.00 in
04:52 41.3 °F 38.6 °F 30.20 in Calm     90 % 0.00 in
04:57 41.3 °F 38.6 °F 30.20 in Calm     90 % 0.00 in
05:03 41.3 °F 38.6 °F 30.20 in Calm     90 % 0.00 in
05:08 41.4 °F 38.7 °F 30.20 in Calm     90 % 0.00 in
05:13 41.5 °F 38.8 °F 30.20 in WNW 1.2 mph 1.2 mph 90 % 0.00 in
05:18 41.8 °F 38.8 °F 30.20 in WNW 1.0 mph   89 % 0.00 in
05:23 42.1 °F 38.8 °F 30.20 in Calm     88 % 0.00 in
05:28 42.2 °F 38.6 °F 30.20 in Calm     87 % 0.00 in
05:33 42.3 °F 38.7 °F 30.21 in Calm     87 % 0.00 in
05:38 42.4 °F 38.8 °F 30.21 in Calm     87 % 0.00 in
05:43 42.4 °F 38.5 °F 30.21 in Calm     86 % 0.00 in
05:48 42.5 °F 38.6 °F 30.21 in Calm     86 % 0.00 in
05:53 42.6 °F 38.7 °F 30.21 in Calm     86 % 0.00 in
05:58 42.6 °F 38.7 °F 30.21 in Calm     86 % 0.00 in
06:03 42.7 °F 38.8 °F 30.21 in Calm     86 % 0.00 in
06:08 42.7 °F 39.1 °F 30.21 in Calm     87 % 0.00 in
06:13 42.9 °F 39.3 °F 30.21 in Calm     87 % 0.00 in
06:19 42.9 °F 39.6 °F 30.22 in WNW 1.2 mph   88 % 0.00 in
06:24 42.9 °F 39.6 °F 30.22 in NNW 1.2 mph   88 % 0.00 in
06:29 42.9 °F 39.9 °F 30.22 in Calm     89 % 0.00 in
06:34 42.8 °F 39.8 °F 30.22 in NNW 1.2 mph 1.2 mph 89 % 0.00 in
06:39 42.7 °F 40.0 °F 30.22 in NW 1.2 mph 1.2 mph 90 % 0.00 in
06:44 42.7 °F 40.0 °F 30.22 in Calm     90 % 0.00 in
06:49 42.8 °F 39.8 °F 30.22 in Calm     89 % 0.00 in
06:54 42.9 °F 39.9 °F 30.23 in Calm     89 % 0.00 in
06:59 43.0 °F 40.0 °F 30.23 in Calm     89 % 0.00 in
07:04 43.0 °F 40.0 °F 30.23 in Calm     89 % 0.00 in
07:09 42.9 °F 40.2 °F 30.23 in Calm     90 % 0.00 in
07:14 42.8 °F 40.1 °F 30.23 in Calm     90 % 0.00 in
07:19 42.8 °F 40.1 °F 30.24 in Calm     90 % 0.00 in
07:24 42.8 °F 40.4 °F 30.24 in Calm     91 % 0.00 in
07:29 42.9 °F 40.5 °F 30.25 in Calm     91 % 0.00 in
07:34 42.9 °F 40.5 °F 30.25 in Calm     91 % 0.00 in
07:39 43.1 °F 40.7 °F 30.25 in Calm     91 % 0.00 in
07:44 43.3 °F 40.6 °F 30.25 in Calm     90 % 0.00 in
07:49 43.5 °F 40.8 °F 30.25 in Calm     90 % 0.00 in
07:54 43.8 °F 41.1 °F 30.25 in Calm     90 % 0.00 in
07:59 44.1 °F 41.4 °F 30.25 in Calm     90 % 0.00 in
08:04 44.5 °F 41.5 °F 30.25 in Calm     89 % 0.00 in
08:09 45.0 °F 41.7 °F 30.25 in Calm     88 % 0.00 in
08:14 45.6 °F 41.4 °F 30.26 in Calm     85 % 0.00 in
08:19 46.1 °F 41.5 °F 30.25 in Calm     84 % 0.00 in
08:24 47.4 °F 41.9 °F 30.25 in Calm     81 % 0.00 in
08:29 47.8 °F 41.6 °F 30.26 in WSW 1.0 mph 1.0 mph 79 % 0.00 in
08:34 47.9 °F 41.0 °F 30.26 in West 1.2 mph   77 % 0.00 in
08:39 48.5 °F 41.3 °F 30.26 in WNW 1.2 mph   76 % 0.00 in
08:44 49.2 °F 41.3 °F 30.26 in NW 1.2 mph   74 % 0.00 in
08:49 49.4 °F 41.1 °F 30.26 in Calm     73 % 0.00 in
08:54 50.1 °F 41.1 °F 30.26 in Calm     71 % 0.00 in
08:59 50.9 °F 41.8 °F 30.26 in East 1.0 mph   71 % 0.00 in
09:04 51.4 °F 42.3 °F 30.26 in SE 1.2 mph   71 % 0.00 in
09:09 51.9 °F 42.0 °F 30.26 in Calm     69 % 0.00 in
09:14 52.1 °F 41.5 °F 30.26 in SE 1.2 mph   67 % 0.00 in
09:19 51.8 °F 41.2 °F 30.26 in NE 2.3 mph 2.3 mph 67 % 0.00 in
09:24 51.6 °F 41.0 °F 30.27 in SSE 1.2 mph 1.2 mph 67 % 0.00 in
09:29 52.0 °F 41.0 °F 30.27 in SE 3.5 mph 3.5 mph 66 % 0.00 in
09:34 52.5 °F 41.1 °F 30.27 in SE 3.5 mph 3.5 mph 65 % 0.00 in
09:39 52.6 °F 40.4 °F 30.26 in NNW 2.3 mph 2.3 mph 63 % 0.00 in
09:44 52.2 °F 40.4 °F 30.27 in SE 1.2 mph 1.2 mph 64 % 0.00 in
09:49 52.3 °F 40.1 °F 30.27 in North 2.3 mph 2.3 mph 63 % 0.00 in
09:54 52.3 °F 40.1 °F 30.27 in NNW 2.3 mph 2.3 mph 63 % 0.00 in
09:59 52.2 °F 40.8 °F 30.27 in South 2.0 mph 2.0 mph 65 % 0.00 in
10:04 53.1 °F 39.1 °F 30.27 in South 3.0 mph 3.0 mph 59 % 0.00 in
10:09 53.3 °F 39.8 °F 30.27 in NNW 2.3 mph 2.3 mph 60 % 0.00 in
10:14 53.7 °F 38.8 °F 30.27 in SSE 3.0 mph 3.0 mph 57 % 0.00 in
10:19 54.0 °F 37.7 °F 30.27 in Calm     54 % 0.00 in
10:24 54.1 °F 38.7 °F 30.26 in NNW 3.5 mph 3.5 mph 56 % 0.00 in
10:29 54.3 °F 39.8 °F 30.26 in South 1.2 mph 1.2 mph 58 % 0.00 in
10:34 54.7 °F 38.4 °F 30.26 in SSE 2.3 mph 2.3 mph 54 % 0.00 in
10:39 54.4 °F 38.6 °F 30.26 in SE 3.5 mph 3.5 mph 55 % 0.00 in
10:44 54.5 °F 39.1 °F 30.26 in SE 1.2 mph 1.2 mph 56 % 0.00 in
10:50 54.8 °F 38.0 °F 30.26 in NNE 1.2 mph 1.2 mph 53 % 0.00 in
10:54 54.4 °F 38.1 °F 30.26 in WNW 3.5 mph 3.5 mph 54 % 0.00 in
11:00 55.0 °F 39.1 °F 30.26 in ESE 2.3 mph 2.3 mph 55 % 0.00 in
11:05 55.8 °F 39.9 °F 30.26 in South 2.3 mph 2.3 mph 55 % 0.00 in
11:10 56.3 °F 39.4 °F 30.26 in SSW 2.3 mph 2.3 mph 53 % 0.00 in
11:15 55.7 °F 37.8 °F 30.26 in ESE 3.5 mph 3.5 mph 51 % 0.00 in
11:20 55.1 °F 38.3 °F 30.26 in East 1.2 mph 1.2 mph 53 % 0.00 in
11:25 55.4 °F 39.0 °F 30.26 in SSW 1.2 mph 1.2 mph 54 % 0.00 in
11:30 55.6 °F 38.7 °F 30.26 in SSE 3.5 mph 3.5 mph 53 % 0.00 in
11:35 55.6 °F 37.7 °F 30.25 in West 3.5 mph 3.5 mph 51 % 0.00 in
11:40 55.6 °F 39.2 °F 30.25 in NW 3.5 mph 3.5 mph 54 % 0.00 in
11:45 55.8 °F 39.4 °F 30.25 in NNW 2.3 mph 2.3 mph 54 % 0.00 in
11:50 56.3 °F 38.9 °F 30.25 in South 3.5 mph 3.5 mph 52 % 0.00 in
11:55 56.4 °F 39.5 °F 30.25 in ENE 2.3 mph 2.3 mph 53 % 0.00 in
12:00 56.7 °F 38.8 °F 30.25 in SSW 3.5 mph 3.5 mph 51 % 0.00 in
12:05 57.0 °F 39.0 °F 30.25 in SSW 2.3 mph 2.3 mph 51 % 0.00 in
12:10 57.2 °F 38.2 °F 30.24 in NW 2.3 mph 2.3 mph 49 % 0.00 in
12:15 57.1 °F 38.1 °F 30.24 in SSW 2.3 mph 2.3 mph 49 % 0.00 in
12:20 57.5 °F 38.5 °F 30.24 in NW 3.5 mph 3.5 mph 49 % 0.00 in
12:25 57.0 °F 38.5 °F 30.24 in SSE 4.0 mph 4.0 mph 50 % 0.00 in
12:30 56.9 °F 38.4 °F 30.23 in NNW 3.0 mph 3.0 mph 50 % 0.00 in
12:35 56.7 °F 37.7 °F 30.23 in NW 3.5 mph 3.5 mph 49 % 0.00 in
12:40 56.9 °F 37.9 °F 30.23 in North 3.5 mph 3.5 mph 49 % 0.00 in
12:45 56.8 °F 38.9 °F 30.23 in NW 1.2 mph 1.2 mph 51 % 0.00 in
12:50 56.6 °F 38.7 °F 30.22 in WNW 1.2 mph 1.2 mph 51 % 0.00 in
12:55 56.3 °F 37.9 °F 30.22 in NNW 2.3 mph 2.3 mph 50 % 0.00 in
13:00 56.3 °F 37.9 °F 30.22 in North 2.3 mph 2.3 mph 50 % 0.00 in
13:05 57.1 °F 39.1 °F 30.22 in SSE 2.0 mph 2.0 mph 51 % 0.00 in
13:10 57.7 °F 38.1 °F 30.22 in SSE 4.6 mph 4.6 mph 48 % 0.00 in
13:15 57.9 °F 38.8 °F 30.21 in South 3.5 mph 3.5 mph 49 % 0.00 in
13:21 57.9 °F 36.7 °F 30.21 in Calm     45 % 0.00 in
13:26 57.7 °F 39.2 °F 30.21 in West 2.3 mph   50 % 0.00 in
13:31 57.5 °F 39.0 °F 30.21 in NNW 1.2 mph 1.2 mph 50 % 0.00 in
13:36 57.2 °F 39.2 °F 30.20 in WSW 3.5 mph 3.5 mph 51 % 0.00 in
13:41 57.5 °F 39.0 °F 30.20 in WNW 1.2 mph 1.2 mph 50 % 0.00 in
13:46 57.6 °F 40.1 °F 30.20 in NE 3.5 mph 3.5 mph 52 % 0.00 in
13:51 57.8 °F 39.3 °F 30.20 in South 1.2 mph 1.2 mph 50 % 0.00 in
13:56 57.7 °F 39.2 °F 30.20 in SSE 3.5 mph 3.5 mph 50 % 0.00 in
14:01 57.4 °F 38.9 °F 30.19 in WNW 3.5 mph 3.5 mph 50 % 0.00 in
14:06 57.2 °F 38.7 °F 30.19 in NW 3.5 mph 3.5 mph 50 % 0.00 in
14:11 57.4 °F 38.9 °F 30.19 in SSW 3.0 mph 3.0 mph 50 % 0.00 in
14:16 57.8 °F 39.3 °F 30.19 in NW 1.0 mph 1.0 mph 50 % 0.00 in
14:21 57.2 °F 39.2 °F 30.19 in North 1.2 mph 1.2 mph 51 % 0.00 in
14:26 57.3 °F 39.3 °F 30.19 in NW 1.2 mph 1.2 mph 51 % 0.00 in
14:31 57.6 °F 39.1 °F 30.19 in SSE 1.2 mph 1.2 mph 50 % 0.00 in
14:36 57.8 °F 39.8 °F 30.19 in South 1.0 mph   51 % 0.00 in
14:41 58.0 °F 39.5 °F 30.19 in WNW 2.3 mph 2.3 mph 50 % 0.00 in
14:46 57.4 °F 38.9 °F 30.19 in NE 3.5 mph 3.5 mph 50 % 0.00 in
14:51 56.7 °F 39.3 °F 30.19 in NNW 1.2 mph 1.2 mph 52 % 0.00 in
14:56 56.7 °F 38.8 °F 30.19 in WNW 2.3 mph 2.3 mph 51 % 0.00 in
15:01 56.6 °F 39.2 °F 30.19 in WNW 2.3 mph   52 % 0.00 in
15:06 57.2 °F 39.7 °F 30.19 in NNW 3.5 mph 3.5 mph 52 % 0.00 in
15:11 57.7 °F 39.2 °F 30.19 in SSW 1.2 mph 1.2 mph 50 % 0.00 in
15:16 57.8 °F 39.3 °F 30.18 in Calm     50 % 0.00 in
15:21 57.4 °F 38.9 °F 30.18 in NNE 1.2 mph   50 % 0.00 in
15:26 57.0 °F 39.5 °F 30.18 in NW 3.5 mph 3.5 mph 52 % 0.00 in
15:31 56.8 °F 39.4 °F 30.18 in SSW 2.3 mph 2.3 mph 52 % 0.00 in
15:36 56.7 °F 39.3 °F 30.18 in NNW 1.2 mph 1.2 mph 52 % 0.00 in
15:41 56.9 °F 39.4 °F 30.17 in Calm     52 % 0.00 in
15:46 56.9 °F 39.4 °F 30.17 in Calm     52 % 0.00 in
15:51 56.8 °F 38.9 °F 30.17 in North 1.2 mph   51 % 0.00 in
15:56 56.7 °F 38.8 °F 30.17 in East 1.2 mph 1.2 mph 51 % 0.00 in
16:01 56.7 °F 39.7 °F 30.17 in West 3.5 mph 3.5 mph 53 % 0.00 in
16:06 56.5 °F 39.6 °F 30.17 in Calm     53 % 0.00 in
16:11 56.4 °F 39.5 °F 30.17 in Calm     53 % 0.00 in
16:16 56.4 °F 39.5 °F 30.17 in West 3.5 mph 3.5 mph 53 % 0.00 in
16:21 56.1 °F 39.2 °F 30.17 in Calm     53 % 0.00 in
16:26 55.8 °F 39.4 °F 30.17 in North 1.2 mph 1.2 mph 54 % 0.00 in
16:31 55.8 °F 39.4 °F 30.17 in Calm     54 % 0.00 in
16:36 55.7 °F 38.8 °F 30.17 in Calm     53 % 0.00 in
16:41 55.6 °F 39.7 °F 30.17 in NW 1.2 mph   55 % 0.00 in
16:46 55.6 °F 39.7 °F 30.17 in Calm     55 % 0.00 in
16:51 55.6 °F 39.7 °F 30.17 in Calm     55 % 0.00 in
16:56 55.8 °F 39.9 °F 30.17 in NNW 1.2 mph   55 % 0.00 in
17:01 55.8 °F 38.9 °F 30.17 in Calm     53 % 0.00 in
17:06 55.7 °F 39.3 °F 30.17 in Calm     54 % 0.00 in
17:11 55.7 °F 39.3 °F 30.17 in Calm     54 % 0.00 in
17:16 55.6 °F 39.2 °F 30.16 in Calm     54 % 0.00 in
17:21 55.4 °F 39.5 °F 30.16 in Calm     55 % 0.00 in
17:26 55.1 °F 39.2 °F 30.16 in Calm     55 % 0.00 in
17:31 54.7 °F 39.8 °F 30.16 in Calm     57 % 0.00 in
17:36 54.3 °F 39.4 °F 30.16 in Calm     57 % 0.00 in
17:41 53.9 °F 39.5 °F 30.16 in Calm     58 % 0.00 in
17:46 53.5 °F 39.9 °F 30.16 in Calm     60 % 0.00 in
17:51 53.0 °F 40.3 °F 30.16 in Calm     62 % 0.00 in
17:56 52.6 °F 40.8 °F 30.16 in Calm     64 % 0.00 in
18:01 52.1 °F 39.9 °F 30.16 in Calm     63 % 0.00 in
18:06 51.7 °F 39.9 °F 30.16 in Calm     64 % 0.00 in
18:11 51.3 °F 39.9 °F 30.16 in Calm     65 % 0.00 in
18:16 51.0 °F 40.0 °F 30.16 in Calm     66 % 0.00 in
18:21 50.7 °F 40.5 °F 30.16 in Calm     68 % 0.00 in
18:26 50.3 °F 40.9 °F 30.16 in Calm     70 % 0.00 in
18:31 49.8 °F 40.8 °F 30.16 in Calm     71 % 0.00 in
18:36 49.4 °F 41.1 °F 30.16 in Calm     73 % 0.00 in
18:41 48.9 °F 41.0 °F 30.17 in Calm     74 % 0.00 in
18:47 48.6 °F 41.0 °F 30.17 in Calm     75 % 0.00 in
18:51 48.2 °F 40.3 °F 30.17 in Calm     74 % 0.00 in
18:56 48.1 °F 41.2 °F 30.17 in Calm     77 % 0.00 in
19:02 48.1 °F 41.2 °F 30.17 in Calm     77 % 0.00 in
19:07 48.0 °F 40.8 °F 30.17 in Calm     76 % 0.00 in
19:12 48.0 °F 40.8 °F 30.17 in Calm     76 % 0.00 in
19:17 47.9 °F 40.7 °F 30.17 in Calm     76 % 0.00 in
19:22 47.9 °F 41.4 °F 30.17 in Calm     78 % 0.00 in
19:27 47.6 °F 41.1 °F 30.17 in Calm     78 % 0.00 in
19:32 47.5 °F 40.6 °F 30.17 in Calm     77 % 0.00 in
19:37 47.3 °F 40.8 °F 30.17 in Calm     78 % 0.00 in
19:42 47.2 °F 40.7 °F 30.17 in Calm     78 % 0.00 in
19:47 47.1 °F 40.6 °F 30.17 in Calm     78 % 0.00 in
19:52 47.0 °F 40.2 °F 30.17 in Calm     77 % 0.00 in
19:57 48.3 °F 40.0 °F 30.17 in Calm     73 % 0.00 in
20:02 49.1 °F 40.1 °F 30.17 in Calm     71 % 0.00 in
20:07 49.4 °F 40.0 °F 30.17 in Calm     70 % 0.00 in
20:12 49.5 °F 40.5 °F 30.17 in Calm     71 % 0.00 in
20:17 49.2 °F 40.6 °F 30.17 in Calm     72 % 0.00 in
20:22 48.8 °F 40.9 °F 30.17 in Calm     74 % 0.00 in
20:27 48.3 °F 40.7 °F 30.18 in Calm     75 % 0.00 in
20:32 47.8 °F 40.6 °F 30.18 in Calm     76 % 0.00 in
20:37 47.5 °F 40.3 °F 30.18 in Calm     76 % 0.00 in
20:42 47.3 °F 40.5 °F 30.18 in Calm     77 % 0.00 in
20:47 47.2 °F 40.4 °F 30.18 in Calm     77 % 0.00 in
20:52 47.2 °F 40.4 °F 30.18 in Calm     77 % 0.00 in
20:57 47.0 °F 40.5 °F 30.18 in Calm     78 % 0.00 in
21:02 46.4 °F 39.9 °F 30.18 in Calm     78 % 0.00 in
21:07 46.0 °F 39.9 °F 30.18 in Calm     79 % 0.00 in
21:12 45.8 °F 39.7 °F 30.18 in Calm     79 % 0.00 in
21:17 45.8 °F 39.7 °F 30.18 in Calm     79 % 0.00 in
21:22 45.9 °F 39.8 °F 30.18 in Calm     79 % 0.00 in
21:27 45.9 °F 39.8 °F 30.18 in Calm     79 % 0.00 in
21:32 45.7 °F 39.6 °F 30.18 in Calm     79 % 0.00 in
21:37 45.5 °F 39.7 °F 30.18 in Calm     80 % 0.00 in
21:42 45.3 °F 39.8 °F 30.19 in Calm     81 % 0.00 in
21:47 45.1 °F 39.6 °F 30.18 in Calm     81 % 0.00 in
21:52 44.9 °F 39.4 °F 30.18 in Calm     81 % 0.00 in
21:57 44.8 °F 39.3 °F 30.18 in Calm     81 % 0.00 in
22:02 44.7 °F 39.2 °F 30.18 in Calm     81 % 0.00 in
22:07 44.5 °F 39.3 °F 30.17 in Calm     82 % 0.00 in
22:12 44.4 °F 39.2 °F 30.18 in Calm     82 % 0.00 in
22:17 44.2 °F 39.1 °F 30.17 in Calm     82 % 0.00 in
22:22 44.0 °F 39.2 °F 30.17 in Calm     83 % 0.00 in
22:27 44.1 °F 39.6 °F 30.17 in Calm     84 % 0.00 in
22:32 44.1 °F 39.6 °F 30.17 in Calm     84 % 0.00 in
22:37 44.2 °F 39.7 °F 30.17 in Calm     84 % 0.00 in
22:43 44.2 °F 39.7 °F 30.18 in Calm     84 % 0.00 in
22:48 44.3 °F 40.1 °F 30.18 in Calm     85 % 0.00 in
22:53 44.0 °F 39.5 °F 30.18 in Calm     84 % 0.00 in
22:58 43.9 °F 39.7 °F 30.18 in Calm     85 % 0.00 in
23:03 44.0 °F 39.8 °F 30.18 in Calm     85 % 0.00 in
23:08 43.9 °F 40.0 °F 30.18 in Calm     86 % 0.00 in
23:13 43.7 °F 39.5 °F 30.17 in Calm     85 % 0.00 in
23:18 43.4 °F 39.5 °F 30.17 in Calm     86 % 0.00 in
23:23 43.1 °F 39.2 °F 30.17 in Calm     86 % 0.00 in
23:28 42.9 °F 39.0 °F 30.17 in Calm     86 % 0.00 in
23:33 42.9 °F 39.3 °F 30.17 in Calm     87 % 0.00 in
23:38 43.3 °F 39.4 °F 30.17 in Calm     86 % 0.00 in
23:43 43.5 °F 39.3 °F 30.17 in Calm     85 % 0.00 in
23:48 43.0 °F 39.1 °F 30.18 in Calm     86 % 0.00 in
23:53 42.8 °F 38.9 °F 30.17 in Calm     86 % 0.00 in
23:58 42.8 °F 39.2 °F 30.18 in Calm     87 % 0.00 in
Park Place, Exeter, Tulare County, California, USA
Compliments of Weather Underground - 2.75 mb